Location: Unnamed
(51.5169°N, 0.1311°W)
Time: 21:30:17
(UTC+01:00)

Tiros 1 - Pass Details

Date: 08 August 2024
Orbit: 623 x 655 km, 48.4° (Epoch: 16 September)

Event Time Altitude Azimuth Distance (km) Brightness Sun altitude
Rises 12:07:20 0° 278° (W) 2,976 10.4 52.5°
Reaches altitude 10° 12:09:52 10° 269° (W) 2,059 9.7 52.7°
Maximum altitude 12:14:05 32° 207° (SSW) 1,110 9.3 52.9°
Drops below altitude 10° 12:18:14 10° 144° (SE) 2,035 10.5 53.1°
Sets 12:20:44 0° 135° (SE) 2,936 11.0 53.3°
